www.pogodaiklimat.ru

Погода и климат >> Архив погоды >> Мьянма >> Проме


ПОГОДА в Проме

  • Прогноз погоды в Проме
  • Монитор погоды в Проме

АРХИВ ПОГОДЫ в Проме

Время (UTC), дата Ветер
(напр.,м/с)
 
Видим.   Явления Облачность Т
(С)
Тd
(С)
f
(%)
Тe
(С)
Тes
(С)
Комфортность P
(гПа)
Po
(гПа)
Тmin
(С)
Tmax
(С)
R
(мм)
R24
(мм)
S
(см)
09 15.08 штиль 0 9000 м 9/6 600 м
[Cb cap Ac trans]
+34.0 +25.7 62 +49 +52 опасность
перегрева
1004.5 997.8
12 15.08 штиль 0 6000 м 10/6 600 м
[Cb cap Ac trans Ci fib]
+31.5 +26.5 75 +48 +48 опасность
перегрева
1003.0 996.3 +35.0
00 16.08 штиль 0 6000 м 9/6 600 м
[Cb cap Ac trans]
+26.8 +25.6 93 +39 +40 очень
душно
1003.4 996.6 +25.4
03 16.08 штиль 0 9000 м 9/6 600 м
[Cb cap Ac trans Ci fib]
+29.4 +25.9 81 +44 +48 опасность
перегрева
1004.3 997.5
06 16.08 штиль 0 9000 м 10/6 600 м
[Cb cap Ac trans Ci fib]
+31.5 +26.5 75 +48 +54 опасность
перегрева
1004.2 997.5
09 16.08 штиль 0 9000 м 9/6 600 м
[Cb cap Ac trans Ci fib]
+34.0 +25.7 62 +49 +52 опасность
перегрева
1001.6 994.9
12 16.08 штиль 0 6000 м 8/6 600 м
[Cb cap Ci fib]
+32.0 +24.8 66 +45 +45 опасность
перегрева
1000.7 994.0 +34.4
00 17.08 штиль 0 6000 м 10/6 600 м
[Cb cap Ac trans Ci fib]
+28.0 +25.0 84 +40 +41 очень
душно
1003.6 996.8 +26.4
03 17.08 штиль 0 9000 м 10/6 600 м
[Cb cap Ac trans Ci fib]
+29.0 +25.9 83 +43 +47 опасность
перегрева
1004.7 997.9
06 17.08 штиль 0 9000 м 10/6 600 м
[Cb cap Ac trans Ci fib]
+32.0 +26.5 73 +49 +55 опасность
перегрева
1004.4 997.7
09 17.08 штиль 0 9000 м 10/6 600 м
[Cb cap Ac trans Ci fib]
+33.0 +25.8 66 +48 +51 опасность
перегрева
1002.5 995.8
12 17.08 штиль 0 6000 м 10/6 600 м
[Cb cap Ac trans Ci fib]
+30.0 +25.3 76 +44 +44 опасность
перегрева
1002.9 996.1 +33.2
00 18.08 штиль 0 6000 м 10/6 600 м
[Cb cap Ac trans Ci fib]
+27.0 +25.6 92 +40 +40 очень
душно
1005.4 998.6 +25.6
03 18.08 штиль 0 9000 м 10/6 600 м
[Cb cap Ac trans Ci fib]
+29.0 +25.9 83 +43 +47 опасность
перегрева
1006.9 1000.1
06 18.08 штиль 0 9000 м 8/5 600 м
[Cb cap Ci fib]
+32.2 +26.5 72 +49 +62 опасность
перегрева
1006.4 999.7
09 18.08 штиль 0 8000 м {дождь} 10/6 600 м
[Cb cap Ac As]
+27.0 +25.6 92 +40 +41 очень
душно
1005.4 998.6
12 18.08 штиль 0 6000 м 10/6 600 м
[Cb cap Ac As]
+28.0 +26.8 93 +44 +44 опасность
перегрева
1005.3 998.5 +32.4 4
00 19.08 штиль 0 6000 м 10/6 600 м
[Cb cap Ac trans Ci fib]
+26.4 +24.6 90 +37 +37 очень
душно
1006.4 999.5 +25.0
03 19.08 штиль 0 9000 м 6/4 600 м
[Cu Sc Ci fib]
+28.5 +26.8 91 +45 +55 опасность
перегрева
1007.5 1000.7
06 19.08 штиль 0 9000 м 9/6 600 м
[Cb cap Ac trans]
+31.5 +26.5 75 +48 +55 опасность
перегрева
1006.5 999.7
09 19.08 штиль 0 9000 м 10/6 600 м
[Cb cap Ac trans Ci fib]
+30.5 +26.6 80 +47 +50 опасность
перегрева
1005.0 998.2
12 19.08 штиль 0 6000 м {морось} 10/6 600 м
[Cb cap Ac trans Ci fib]
+29.0 +27.4 91 +47 +47 опасность
перегрева
1004.2 997.4 +32.0 2
00 20.08 штиль 0 6000 м 10/6 600 м
[Cb cap Ac trans Ci fib]
+26.0 +24.6 92 +37 +37 очень
душно
1004.3 997.4 +24.4
03 20.08 штиль 0 9000 м 10/6 600 м
[Cb cap Ac trans Ci fib]
+28.0 +25.0 84 +40 +44 очень
душно
1005.0 998.2
06 20.08 штиль 0 9000 м 8/6 600 м
[Cb cap Ci fib]
+32.0 +26.5 73 +49 +59 опасность
перегрева
1004.4 997.7
09 20.08 штиль 0 9000 м 8/6 600 м
[Cb cap Ci fib]
+33.0 +27.5 73 +52 +57 опасность
перегрева
1001.6 994.9
12 20.08 штиль 0 6000 м 8/6 600 м
[Cb cap Ci fib]
+30.0 +25.3 76 +44 +44 опасность
перегрева
1001.0 994.3 +33.4
00 21.08 штиль 0 6000 м 10/6 600 м
[Cb cap Ac trans Ci fib]
+27.0 +25.6 92 +40 +40 очень
душно
1001.5 994.7 +25.6
03 21.08 штиль 0 9000 м 10/6 600 м
[Cb cap Ac trans Ci fib]
+28.8 +25.9 84 +43 +47 опасность
перегрева
1002.6 995.8
06 21.08 штиль 0 9000 м 8/6 600 м
[Cb cap Ci fib]
+31.0 +27.4 81 +49 +60 опасность
перегрева
1002.2 995.5
09 21.08 СЗ 3 8000 м {дождь} 10/6 600 м
[Cb cap Ac As]
+31.0 +27.0 79 +48 +49 опасность
перегрева
1000.2 993.5
12 21.08 штиль 0 6000 м 10/6 600 м
[Cb cap Ac As]
+28.0 +26.8 93 +44 +44 опасность
перегрева
1000.7 993.9 +33.2 2
00 22.08 штиль 0 6000 м 9/6 600 м
[Cb cap Ci fib]
+26.4 +24.6 90 +37 +37 очень
душно
1002.2 995.4 +25.0
03 22.08 штиль 0 9000 м 10/6 600 м
[Cb cap Ac trans Ci fib]
+29.5 +25.3 78 +43 +47 опасность
перегрева
1003.3 996.5
06 22.08 штиль 0 9000 м {дождь} 8/6 600 м
[Cb cap Ac trans]
+30.2 +26.6 81 +47 +55 опасность
перегрева
1003.4 996.6

 

Местоположение метеостанции Проме (Мьянма): широта 18.80 долгота 95.22 высота над уровнем моря 60 м.

В архиве по умолчанию представлена погода в Проме за последнюю неделю. Архивные данные за месяц целиком и за предыдущие месяцы, начиная с января 2011 года, Вы можете получить, выбрав интересующий диапазон дат из раскрывающегося списка и нажав кнопку "Ввод!".


*Определитесь, кто Вы:
робот инопланетянин человек

Внимание! Время в таблицах - всемирное. Для получения местного времени необходимо прибавить поправку, которая равна 6.5 ч.

Смотрите также архив погоды в соседних городах и на ближайших метеорологических станциях:

Погода в Тандве (Мьянма) (99 км)
Погода в Хинтаде (Мьянма) (127 км)
Погода в Таунгу (Мьянма) (132 км)
Погода в Пьинмане (Мьянма) (147 км)
Погода в Гва (Мьянма) (152 км)
Погода в Магуэе (Мьянма) (153 км)
Погода в Минбу (Мьянма) (156 км)
Погода в Манаунге (Мьянма) (157 км)
Погода в Кяокпю (Мьянма) (189 км)
Погода в Хмавби (Мьянма) (207 км)

Пояснения к столбцам:

Ветер - указаны скорость ветра в м/с - средняя за 10 мин, порывы в срок и между сроками (в фигурных скобках) и направление, откуда дует ветер: С - северный, СВ - северо-восточный, В - восточный, ЮВ - юго-восточный, Ю - южный, ЮЗ - юго-западный, З - западный, СЗ - северо-западный.
Видимость - горизонтальная дальность видимости в метрах или километрах. При видимости от 1 до 10 км при отсутствии осадков обычно наблюдается дымка, при ухудшении видимости до 1 км и менее - туман. В сухую погоду видимость может ухудшаться дымом, пылью или мглою.
Явления - указаны атмосферные явления, наблюдавшиеся в срок или в последний час перед сроком; фигурными скобками обозначены явления, наблюдавшиеся между сроками (за 1-3 часа до срока); квадратными скобками обозначены град или гололедные отложения с указанием их диаметра в мм.
Облачность - указаны через наклонную черту общая и нижняя облачность в баллах и высота нижней границы облаков в метрах; квадратными скобками обозначены формы облаков: Ci - перистые, Cs - перисто-слоистые, Cc - перисто-кучевые, Ac - высококучевые, As - высокослоистые, Sc - слоисто-кучевые, Ns - слоисто-дождевые, Cu - кучевые, Cb - кучево-дождевые. Подробнее классификацию облаков см. в Атласе облаков (PDF).
T - Температура воздуха - температура, измеренная на высоте 2 м над землей.
Td - Температура точки росы - температура, при понижении до которой содержащийся в воздухе водяной пар достигнет насыщения.
f - Относительная влажность воздуха - влажноcть воздуха, измеренная на высоте 2 м над землей.
Te - Эффективная температура - температура, которую ощущает одетый по сезону человек в тени. Характеристика душности погоды. При расчете учитывается влияние влажности воздуха и скорости ветра на теплоощущения человека.
Tes - Эффективная температура на солнце - температура, которую ощущает человек, с поправкой на солнечный нагрев. Характеристика знойности погоды. Зависит от высоты солнца над горизонтом, облачности и скорости ветра. Ночью, в пасмурную погоду, а также при ветре 12 м/с и более поправка равна нулю.
P - Атмосферное давление - приведенное к уровню моря атмосферное давление.
Po - Атмосферное давление - измеренное на уровне метеостанции атмосферное давление.
Tmin - Минимальная температура - минимум температуры воздуха на высоте 2 м над землей.
Tmax - Максимальная температура - максимум температуры воздуха на высоте 2 м над землей.
R - Количество осадков - Количество выпавших осадков за период времени, мм. При наведении курсора мыши на число - период времени, за который выпало указанное количество осадков.
R24 - Количество осадков - Количество выпавших осадков за 24 часа, мм.
S - Снежный покров - Высота снежного покрова, см. При наведении курсора мыши на число - состояние снежного покрова и степень покрытия местности в баллах.